H1 CPF 2 NER 2021 10 28 9 301 01 glonass127 H2 1106403 9127 37869 2021 10 28 0 0 0 2021 10 31 23 45 0 900 1 1 0 0 0 1 H9 10 0 59515 0.00000 0 9148240.878 -16735441.078 -16876076.816 10 0 59515 900.00000 0 8985673.795 -14522250.614 -18889666.845 10 0 59515 1800.00000 0 8992266.906 -12077433.188 -20534512.287 10 0 59515 2700.00000 0 9194325.774 -9462197.359 -21778463.728 10 0 59515 3600.00000 0 9606795.999 -6743088.444 -22597232.432 10 0 59515 4500.00000 0 10232503.612 -3989416.356 -22974870.678 10 0 59515 5400.00000 0 11061927.373 -1270575.801 -22904083.942 10 0 59515 6300.00000 0 12073513.000 1346628.211 -22386368.872 10 0 59515 7200.00000 0 13234515.862 3800536.910 -21431974.750 10 0 59515 8100.00000 0 14502335.885 6036969.245 -20059689.936 10 0 59515 9000.00000 0 15826287.303 8011231.137 -18296458.470 10 0 59515 9900.00000 0 17149727.283 9689719.343 -16176835.513 10 0 59515 10800.00000 0 18412452.310 11051054.500 -13742293.636 10 0 59515 11700.00000 0 19553260.038 12086698.201 -11040394.892 10 0 59515 12600.00000 0 20512567.585 12801031.006 -8123846.328 10 0 59515 13500.00000 0 21234975.328 13210891.348 -5049458.722 10 0 59515 14400.00000 0 21671668.018 13344598.011 -1877030.056 10 0 59515 15300.00000 0 21782552.466 13240500.502 1331823.474 10 0 59515 16200.00000 0 21538042.635 12945121.186 4514865.497 10 0 59515 17100.00000 0 20920418.283 12510969.750 7610443.035 10 0 59515 18000.00000 0 19924701.524 11994123.601 10558672.292 10 0 59515 18900.00000 0 18559015.985 11451676.924 13302584.381 10 0 59515 19800.00000 0 16844414.815 10939165.793 15789209.918 10 0 59515 20700.00000 0 14814185.714 10508076.965 17970582.923 10 0 59515 21600.00000 0 12512662.365 10203543.851 19804646.513 10 0 59515 22500.00000 0 9993591.537 10062324.877 21256044.887 10 0 59515 23400.00000 0 7318122.877 10111147.463 22296788.254 10 0 59515 24300.00000 0 4552503.226 10365485.642 22906779.721 10 0 59515 25200.00000 0 1765568.898 10828821.600 23074195.428 10 0 59515 26100.00000 0 -973862.665 11492421.731 22795711.524 10 0 59515 27000.00000 0 -3599596.586 12335637.043 22076573.937 10 0 59515 27900.00000 0 -6050554.442 13326716.529 20930509.253 10 0 59515 28800.00000 0 -8273057.238 14424101.296 19379477.400 10 0 59515 29700.00000 0 -10222804.640 15578147.554 17453269.363 10 0 59515 30600.00000 0 -11866469.443 16733208.819 15188955.634 10 0 59515 31500.00000 0 -13182841.300 17829992.356 12630193.844 10 0 59515 32400.00000 0 -14163471.863 18808093.024 9826406.637 10 0 59515 33300.00000 0 -14812793.583 19608599.390 6831843.540 10 0 59515 34200.00000 0 -15147706.008 20176663.036 3704543.295 10 0 59515 35100.00000 0 -15196645.663 20463922.482 505215.534 10 0 59515 36000.00000 0 -14998177.443 20430678.335 -2703937.138 10 0 59515 36900.00000 0 -14599165.969 20047725.816 -5860433.651 10 0 59515 37800.00000 0 -14052603.730 19297764.816 -8902741.253 10 0 59515 38700.00000 0 -13415188.012 18176324.934 -11771489.552 10 0 59515 39600.00000 0 -12744749.947 16692163.595 -14410646.439 10 0 59515 40500.00000 0 -12097645.867 14867117.647 -16768631.170 10 0 59515 41400.00000 0 -11526223.206 12735412.372 -18799341.043 10 0 59515 42300.00000 0 -11076470.274 10342455.340 -20463069.739 10 0 59515 43200.00000 0 -10785951.383 7743164.735 -21727297.932 10 0 59515 44100.00000 0 -10682116.563 4999901.943 -22567339.474 10 0 59515 45000.00000 0 -10781058.806 2180095.336 -22966829.726 10 0 59515 45900.00000 0 -11086772.324 -646344.664 -22918046.114 10 0 59515 46800.00000 0 -11590943.527 -3409710.313 -22422054.653 10 0 59515 47700.00000 0 -12273283.333 -6043167.981 -21488679.990 10 0 59515 48600.00000 0 -13102385.964 -8485304.152 -20136300.287 10 0 59515 49500.00000 0 -14037076.794 -10682439.564 -18391471.899 10 0 59515 50400.00000 0 -15028190.786 -12590615.147 -16288392.432 10 0 59515 51300.00000 0 -16020704.799 -14177167.944 -13868214.012 10 0 59515 52200.00000 0 -16956132.155 -15421832.900 -11178221.526 10 0 59515 53100.00000 0 -17775076.954 -16317326.705 -8270893.433 10 0 59515 54000.00000 0 -18419839.280 -16869392.205 -5202864.775 10 0 59515 54900.00000 0 -18836960.777 -17096304.632 -2033813.831 10 0 59515 55800.00000 0 -18979603.106 -17027863.625 1174704.813 10 0 59515 56700.00000 0 -18809659.473 -16703916.468 4360457.423 10 0 59515 57600.00000 0 -18299511.101 -16172477.224 7461734.931 10 0 59515 58500.00000 0 -17433355.950 -15487522.909 10418540.113 10 0 59515 59400.00000 0 -16208055.158 -14706560.616 13173735.748 10 0 59515 60300.00000 0 -14633462.908 -13888068.340 15674132.649 10 0 59515 61200.00000 0 -12732226.923 -13088916.655 17871497.916 10 0 59515 62100.00000 0 -10539068.413 -12361878.536 19723465.793 10 0 59515 63000.00000 0 -8099571.383 -11753330.241 21194335.529 10 0 59515 63900.00000 0 -5468531.000 -11301237.890 22255742.798 10 0 59515 64800.00000 0 -2707928.122 -11033512.330 22887193.582 10 0 59515 65700.00000 0 115388.016 -10966799.681 23076451.678 10 0 59515 66600.00000 0 2932215.402 -11105757.193 22819773.326 10 0 59515 67500.00000 0 5673611.741 -11442844.439 22121984.780 10 0 59515 68400.00000 0 8273498.470 -11958639.007 20996401.017 10 0 59515 69300.00000 0 10671150.898 -12622664.644 19464586.164 10 0 59515 70200.00000 0 12813473.370 -13394698.935 17555958.728 10 0 59515 71100.00000 0 14656966.514 -14226507.808 15307247.212 10 0 59515 72000.00000 0 16169305.414 -15063936.346 12761804.428 10 0 59515 72900.00000 0 17330463.052 -15849270.125 9968791.437 10 0 59515 73800.00000 0 18133331.478 -16523769.337 6982244.728 10 0 59515 74700.00000 0 18583813.530 -17030269.913 3860043.020 10 0 59515 75600.00000 0 18700379.913 -17315742.024 662792.402 10 0 59515 76500.00000 0 18513108.782 -17333697.179 -2547349.201 10 0 59515 77400.00000 0 18062247.034 -17046340.600 -5707885.295 10 0 59515 78300.00000 0 17396353.152 -16426375.585 -8757207.620 10 0 59515 79200.00000 0 16570099.753 -15458380.755 -11635811.432 10 0 59515 80100.00000 0 15641829.017 -14139698.966 -14287473.925 10 0 59515 81000.00000 0 14670965.340 -12480797.354 -16660371.003 10 0 59515 81900.00000 0 13715396.027 -10505080.577 -18708108.762 10 0 59515 82800.00000 0 12828932.590 -8248162.980 -20390647.654 10 0 59515 83700.00000 0 12058961.833 -5756628.697 -21675099.767 10 0 59515 84600.00000 0 11444387.785 -3086330.877 -22536382.452 10 0 59515 85500.00000 0 11013952.868 -300301.183 -22957714.609 10 0 59516 0.00000 0 10785010.205 2533642.351 -22930945.653 10 0 59516 900.00000 0 10762799.162 5345489.902 -22456710.565 10 0 59516 1800.00000 0 10940254.747 8065723.762 -21544408.567 10 0 59516 2700.00000 0 11298357.622 10627983.781 -20212006.478 10 0 59516 3600.00000 0 11807008.959 12971598.804 -18485671.522 10 0 59516 4500.00000 0 12426391.275 15043879.827 -16399242.001 10 0 59516 5400.00000 0 13108755.851 16802079.419 -13993547.545 10 0 59516 6300.00000 0 13800559.256 18214936.792 -11315593.562 10 0 59516 7200.00000 0 14444856.873 19263745.651 -8417627.337 10 0 59516 8100.00000 0 14983850.793 19942902.639 -5356105.353 10 0 59516 9000.00000 0 15361483.349 20259916.232 -2190583.182 10 0 59516 9900.00000 0 15525966.233 20234878.758 1017449.317 10 0 59516 10800.00000 0 15432138.398 19899426.779 4205764.171 10 0 59516 11700.00000 0 15043553.804 19295236.263 7312599.284 10 0 59516 12600.00000 0 14334211.954 18472118.041 10277846.894 10 0 59516 13500.00000 0 13289859.492 17485795.175 13044204.120 10 0 59516 14400.00000 0 11908809.387 16395456.365 15558264.379 10 0 59516 15300.00000 0 10202244.358 15261188.113 17771529.963 10 0 59516 16200.00000 0 8193992.456 14141392.586 19641328.044 10 0 59516 17100.00000 0 5919784.247 13090297.967 21131614.409 10 0 59516 18000.00000 0 3426022.047 12155663.786 22213651.359 10 0 59516 18900.00000 0 768111.116 11376775.242 22866548.553 10 0 59516 19800.00000 0 -1991579.803 10782808.490 23077657.872 10 0 59516 20700.00000 0 -4786046.362 10391633.727 22842815.652 10 0 59516 21600.00000 0 -7546171.256 10209105.098 22166428.025 10 0 59516 22500.00000 0 -10203340.015 10228866.831 21061397.438 10 0 59516 23400.00000 0 -12692044.247 10432684.132 19548890.813 10 0 59516 24300.00000 0 -14952366.773 10791286.120 17657952.317 10 0 59516 25200.00000 0 -16932247.323 11265687.076 15424966.192 10 0 59516 26100.00000 0 -18589435.560 11808932.538 12892977.827 10 0 59516 27000.00000 0 -19893050.436 12368198.782 10110883.859 10 0 59516 27900.00000 0 -20824680.364 12887159.054 7132504.765 10 0 59516 28800.00000 0 -21378977.055 13308518.026 4015556.215 10 0 59516 29700.00000 0 -21563716.727 13576607.957 820537.745 10 0 59516 30600.00000 0 -21399324.421 13639936.545 -2390440.336 10 0 59516 31500.00000 0 -20917879.850 13453577.500 -5554868.955 10 0 59516 32400.00000 0 -20161645.417 12981300.745 -8611067.057 10 0 59516 33300.00000 0 -19181177.724 12197349.476 -11499398.105 10 0 59516 34200.00000 0 -18033102.114 11087785.999 -14163450.952 10 0 59516 35100.00000 0 -16777644.719 9651346.319 -16551160.261 10 0 59516 36000.00000 0 -15476027.276 7899764.446 -18615842.725 10 0 59516 36900.00000 0 -14187836.208 5857550.195 -20317127.019 10 0 59516 37800.00000 0 -12968478.722 3561227.792 -21621757.732 10 0 59516 38700.00000 0 -11866834.954 1058065.914 -22504256.399 10 0 59516 39600.00000 0 -10923206.675 -1595648.165 -22947425.782 10 0 59516 40500.00000 0 -10167650.091 -4336718.062 -22942687.172 10 0 59516 41400.00000 0 -9618763.460 -7097442.714 -22490244.106 10 0 59516 42300.00000 0 -9282980.473 -9808214.362 -21599069.637 10 0 59516 43200.00000 0 -9154398.317 -12400200.738 -20286718.146 10 0 59516 44100.00000 0 -9215146.212 -14807998.705 -18578966.309 10 0 59516 45000.00000 0 -9436276.971 -16972148.028 -16509291.450 10 0 59516 45900.00000 0 -9779141.699 -18841400.384 -14118198.808 10 0 59516 46800.00000 0 -10197187.227 -20374649.448 -11452412.248 10 0 59516 47700.00000 0 -10638098.090 -21542442.588 -8563945.700 10 0 59516 48600.00000 0 -11046190.500 -22328012.834 -5509074.840 10 0 59516 49500.00000 0 -11364955.555 -22727790.329 -2347230.241 10 0 59516 50400.00000 0 -11539643.129 -22751374.524 860165.299 10 0 59516 51300.00000 0 -11519776.814 -22420971.214 4050891.944 10 0 59516 52200.00000 0 -11261493.773 -21770320.792 7163136.982 10 0 59516 53100.00000 0 -10729611.451 -20843165.135 10136684.572 10 0 59516 54000.00000 0 -9899334.942 -19691319.325 12914068.633 10 0 59516 54900.00000 0 -8757534.312 -18372430.236 15441667.610 10 0 59516 55800.00000 0 -7303539.310 -16947516.313 17670721.309 10 0 59516 56700.00000 0 -5549418.923 -15478391.153 19558251.979 10 0 59516 57600.00000 0 -3519734.375 -14025077.511 21067873.854 10 0 59516 58500.00000 0 -1250775.639 -12643318.166 22170477.467 10 0 59516 59400.00000 0 1210687.728 -11382285.578 22844777.428 10 0 59516 60300.00000 0 3809091.202 -10282583.766 23077714.610 10 0 59516 61200.00000 0 6482127.561 -9374623.919 22864705.990 10 0 59516 62100.00000 0 9163084.416 -8677439.924 22209737.767 10 0 59516 63000.00000 0 11783373.025 -8197992.311 21125299.693 10 0 59516 63900.00000 0 14275146.309 -7930989.459 19632160.976 10 0 59516 64800.00000 0 16573900.111 -7859233.964 17758990.585 10 0 59516 65700.00000 0 18620951.759 -7954480.704 15541827.290 10 0 59516 66600.00000 0 20365694.153 -8178772.173 13023407.464 10 0 59516 67500.00000 0 21767532.113 -8486196.669 10252361.323 10 0 59516 68400.00000 0 22797419.965 -8824997.023 7282290.947 10 0 59516 69300.00000 0 23438935.077 -9139942.342 4170746.169 10 0 59516 70200.00000 0 23688840.910 -9374863.400 978116.870 10 0 59516 71100.00000 0 23557114.144 -9475244.550 -2233537.604 10 0 59516 72000.00000 0 23066432.829 -9390761.743 -5401699.074 10 0 59516 72900.00000 0 22251145.451 -9077657.626 -8464617.155 10 0 59516 73800.00000 0 21155763.086 -8500850.871 -11362526.861 10 0 59516 74700.00000 0 19833037.494 -7635687.704 -14038831.822 10 0 59516 75600.00000 0 18341706.219 -6469258.440 -16441228.273 10 0 59516 76500.00000 0 16744000.311 -5001220.330 -18522745.991 10 0 59516 77400.00000 0 15103020.935 -3244089.187 -20242683.976 10 0 59516 78300.00000 0 13480096.867 -1222985.106 -21567421.048 10 0 59516 79200.00000 0 11932235.767 1025158.803 -22471084.248 10 0 59516 80100.00000 0 10509778.072 3452892.479 -22936061.101 10 0 59516 81000.00000 0 9254353.356 6003995.811 -22953345.281 10 0 59516 81900.00000 0 8197225.762 8615603.094 -22522708.926 10 0 59516 82800.00000 0 7358098.102 11220615.401 -21652698.534 10 0 59516 83700.00000 0 6744424.223 13750299.193 -20360455.264 10 0 59516 84600.00000 0 6351257.129 16136961.648 -18671364.067 10 0 59516 85500.00000 0 6161637.315 18316590.104 -16618539.730 10 0 59517 0.00000 0 6147502.499 20231344.799 -14242161.403 10 0 59517 900.00000 0 6271077.721 21831801.796 -11588668.700 10 0 59517 1800.00000 0 6486684.491 23078850.423 -8709839.806 10 0 59517 2700.00000 0 6742889.984 23945170.606 -5661766.701 10 0 59517 3600.00000 0 6984903.467 24416227.465 -2503751.841 10 0 59517 4500.00000 0 7157116.972 24490744.879 702852.297 10 0 59517 5400.00000 0 7205681.902 24180640.600 3895837.337 10 0 59517 6300.00000 0 7081012.304 23510428.265 7013343.230 10 0 59517 7200.00000 0 6740109.398 22516113.821 9995049.197 10 0 59517 8100.00000 0 6148610.004 21243634.634 12783328.896 10 0 59517 9000.00000 0 5282473.577 19746908.097 15324348.472 10 0 59517 9900.00000 0 4129238.048 18085572.116 17569087.617 10 0 59517 10800.00000 0 2688792.657 16322511.829 19474265.716 10 0 59517 11700.00000 0 973635.995 14521275.034 21003157.172 10 0 59517 12600.00000 0 -991391.459 12743482.680 22126282.133 10 0 59517 13500.00000 0 -3169889.813 11046340.395 22821961.176 10 0 59517 14400.00000 0 -5515165.964 9480352.488 23076724.793 10 0 59517 15300.00000 0 -7971932.831 8087331.464 22885570.802 10 0 59517 16200.00000 0 -10478373.552 6898783.964 22252065.210 10 0 59517 17100.00000 0 -12968487.813 5934738.864 21188284.328 10 0 59517 18000.00000 0 -15374625.775 5203065.566 19714598.408 10 0 59517 18900.00000 0 -17630107.178 4699310.723 17859299.488 10 0 59517 19800.00000 0 -19671819.105 4407060.689 15658078.669 10 0 59517 20700.00000 0 -21442685.950 4298815.570 13153360.726 10 0 59517 21600.00000 0 -22893909.580 4337339.565 10393506.564 10 0 59517 22500.00000 0 -23986886.262 4477432.348 7431896.757 10 0 59517 23400.00000 0 -24694719.356 4668048.245 4325912.098 10 0 59517 24300.00000 0 -25003263.035 4854674.758 1135829.566 10 0 59517 25200.00000 0 -24911651.292 4981870.274 -2076345.650 10 0 59517 26100.00000 0 -24432287.872 4995853.241 -5248089.376 10 0 59517 27000.00000 0 -23590295.512 4847032.010 -8317584.883 10 0 59517 27900.00000 0 -22422445.868 4492366.307 -11224941.563 10 0 59517 28800.00000 0 -20975614.013 3897457.815 -13913380.451 10 0 59517 29700.00000 0 -19304821.977 3038278.519 -16330361.724 10 0 59517 30600.00000 0 -17470953.818 1902460.627 -18428630.285 10 0 59517 31500.00000 0 -15538239.121 490090.687 -20167157.106 10 0 59517 32400.00000 0 -13571611.998 -1186028.189 -21511956.419 10 0 59517 33300.00000 0 -11634058.016 -3100659.178 -22436761.470 10 0 59517 34200.00000 0 -9784062.090 -5216949.118 -22923544.740 10 0 59517 35100.00000 0 -8073265.736 -7487746.885 -22962872.007 10 0 59517 36000.00000 0 -6544432.841 -9857367.575 -22554083.278 10 0 59517 36900.00000 0 -5229809.636 -12263728.106 -21705297.371 10 0 59517 37800.00000 0 -4149947.175 -14640764.008 -20433240.757 10 0 59517 38700.00000 0 -3313034.581 -16921025.341 -18762904.920 10 0 59517 39600.00000 0 -2714769.200 -19038342.041 -16727040.133 10 0 59517 40500.00000 0 -2338766.674 -20930446.520 -14365496.884 10 0 59517 41400.00000 0 -2157490.802 -22541443.404 -11724429.163 10 0 59517 42300.00000 0 -2133661.101 -23824023.129 -8855376.730 10 0 59517 43200.00000 0 -2222075.693 -24741327.492 -5814245.586 10 0 59517 44100.00000 0 -2371769.993 -25268390.293 -2660207.819 10 0 59517 45000.00000 0 -2528417.830 -25393094.499 545456.645 10 0 59517 45900.00000 0 -2636872.031 -25116608.009 3740553.084 10 0 59517 46800.00000 0 -2643736.229 -24453282.122 6863176.285 10 0 59517 47700.00000 0 -2499859.121 -23430019.262 9852902.685 10 0 59517 48600.00000 0 -2162646.298 -22085138.528 12651947.805 10 0 59517 49500.00000 0 -1598093.045 -20466788.088 15206267.559 10 0 59517 50400.00000 0 -782453.648 -18630971.751 17466583.505 10 0 59517 51300.00000 0 296521.852 -16639272.340 19389313.995 10 0 59517 52200.00000 0 1638834.487 -14556366.187 20937395.247 10 0 59517 53100.00000 0 3231997.835 -12447431.124 22080978.424 10 0 59517 54000.00000 0 5051324.337 -10375553.945 22797991.204 10 0 59517 54900.00000 0 7060725.386 -8399242.919 23074554.545 10 0 59517 55800.00000 0 9213993.427 -6570146.462 22905247.672 10 0 59517 56700.00000 0 11456514.931 -4931070.498 22293216.681 10 0 59517 57600.00000 0 13727345.705 -3514375.025 21250124.452 10 0 59517 58500.00000 0 15961565.084 -2340815.295 19795942.013 10 0 59517 59400.00000 0 18092813.990 -1418875.090 17958583.933 10 0 59517 60300.00000 0 20055913.809 -744619.871 15773392.819 10 0 59517 61200.00000 0 21789458.918 -302076.500 13282480.690 10 0 59517 62100.00000 0 23238275.998 -64124.659 10533937.647 10 0 59517 63000.00000 0 24355647.789 6136.190 7580920.874 10 0 59517 63900.00000 0 25105207.695 -46399.539 4480639.863 10 0 59517 64800.00000 0 25462424.613 -170975.041 1293256.073 10 0 59517 65700.00000 0 25415613.754 -313358.363 -1919282.401 10 0 59517 66600.00000 0 24966428.683 -418384.458 -5094448.531 10 0 59517 67500.00000 0 24129811.541 -432543.698 -8170362.506 10 0 59517 68400.00000 0 22933401.300 -306505.715 -11087011.334 10 0 59517 69300.00000 0 21416423.189 2530.423 -13787436.585 10 0 59517 70200.00000 0 19628104.841 528761.871 -16218865.296 10 0 59517 71100.00000 0 17625685.256 1296074.160 -18333760.158 10 0 59517 72000.00000 0 15472100.532 2316774.949 -20090766.500 10 0 59517 72900.00000 0 13233444.341 3590825.525 -21455536.046 10 0 59517 73800.00000 0 10976310.936 5105604.757 -22401410.019 10 0 59517 74700.00000 0 8765133.588 6836217.087 -22909947.295 10 0 59517 75600.00000 0 6659631.309 8746332.626 -22971286.824 10 0 59517 76500.00000 0 4712471.856 10789524.481 -22584337.158 10 0 59517 77400.00000 0 2967249.470 12911046.839 -21756789.683 10 0 59517 78300.00000 0 1456861.892 15049978.606 -20504955.974 10 0 59517 79200.00000 0 202353.747 17141641.706 -18853433.370 10 0 59517 80100.00000 0 -787726.788 19120191.556 -16834606.505 10 0 59517 81000.00000 0 -1517433.344 20921270.160 -14487995.833 10 0 59517 81900.00000 0 -2002987.176 22484609.916 -11859467.294 10 0 59517 82800.00000 0 -2271824.727 23756478.619 -9000320.019 10 0 59517 83700.00000 0 -2361170.324 24691863.391 -5966271.302 10 0 59517 84600.00000 0 -2316197.177 25256302.716 -2816359.844 10 0 59517 85500.00000 0 -2187856.920 25427291.025 388210.187 10 0 59518 0.00000 0 -2030471.431 25195198.701 3585260.756 10 0 59518 900.00000 0 -1899189.956 24563670.752 6712845.413 10 0 59518 1800.00000 0 -1847419.750 23549489.928 9710440.800 10 0 59518 2700.00000 0 -1924338.412 22181911.587 12520107.440 10 0 59518 3600.00000 0 -2172592.360 20501499.933 15087593.961 10 0 59518 4500.00000 0 -2626277.308 18558515.303 17363366.484 10 0 59518 5400.00000 0 -3309284.490 16410920.213 19303544.751 10 0 59518 6300.00000 0 -4234080.937 14122086.871 20870728.919 10 0 59518 7200.00000 0 -5400974.121 11758300.560 22034702.978 10 0 59518 8100.00000 0 -6797891.414 9386160.973 22773003.171 10 0 59518 9000.00000 0 -8400683.970 7069987.189 23071342.013 10 0 59518 9900.00000 0 -10173943.364 4869331.684 22923880.805 10 0 59518 10800.00000 0 -12072298.741 2836704.018 22333345.941 10 0 59518 11700.00000 0 -14042142.790 1015596.473 21310986.586 10 0 59518 12600.00000 0 -16023717.313 -561108.080 19876373.752 10 0 59518 13500.00000 0 -17953474.389 -1872281.126 18057043.208 10 0 59518 14400.00000 0 -19766617.409 -2909199.109 15887987.233 10 0 59518 15300.00000 0 -21399718.176 -3675672.386 13411002.800 10 0 59518 16200.00000 0 -22793302.386 -4187646.497 10673906.503 10 0 59518 17100.00000 0 -23894296.128 -4472291.398 7729629.135 10 0 59518 18000.00000 0 -24658230.741 -4566615.650 4635205.643 10 0 59518 18900.00000 0 -25051112.581 -4515662.770 1450678.593 10 0 59518 19800.00000 0 -25050877.397 -4370364.998 -1762064.447 10 0 59518 20700.00000 0 -24648365.851 -4185144.803 -4940497.042 10 0 59518 21600.00000 0 -23847776.566 -4015365.973 -8022679.669 10 0 59518 22500.00000 0 -22666575.051 -3914743.213 -10948480.236 10 0 59518 23400.00000 0 -21134860.030 -3932821.710 -13660763.952 10 0 59518 24300.00000 0 -19294212.066 -4112635.635 -16106527.599 10 0 59518 25200.00000 0 -17196071.737 -4488647.389 -18237954.203 10 0 59518 26100.00000 0 -14899715.147 -5085057.468 -20013365.576 10 0 59518 27000.00000 0 -12469912.003 -5914559.059 -21398052.549 10 0 59518 27900.00000 0 -9974365.251 -6977592.284 -22364965.357 10 0 59518 28800.00000 0 -7481040.789 -8262131.311 -22895249.698 10 0 59518 29700.00000 0 -5055500.258 -9744014.535 -22978617.523 10 0 59518 30600.00000 0 -2758349.636 -11387804.495 -22613545.208 10 0 59518 31500.00000 0 -642911.157 -13148141.238 -21807295.488 10 0 59518 32400.00000 0 1246783.930 -14971531.695 -20575763.422 10 0 59518 33300.00000 0 2877598.310 -16798498.897 -18943150.256 10 0 59518 34200.00000 0 4228421.351 -18565999.570 -16941472.777 10 0 59518 35100.00000 0 5290786.244 -20210007.360 -14609919.024 10 0 59518 36000.00000 0 6068948.225 -21668152.212 -11994064.355 10 0 59518 36900.00000 0 6579423.650 -22882304.301 -9144964.687 10 0 59518 37800.00000 0 6850012.593 -23800993.751 -6118145.981 10 0 59518 38700.00000 0 6918349.409 -24381564.797 -2972510.941 10 0 59518 39600.00000 0 6830045.337 -24591974.680 230814.587 10 0 59518 40500.00000 0 6636504.043 -24412163.052 3429672.320 10 0 59518 41400.00000 0 6392504.193 -23834936.024 6562075.797 10 0 59518 42300.00000 0 6153652.205 -22866329.609 9567404.713 10 0 59518 43200.00000 0 5973813.073 -21525439.117 12387566.709 10 0 59518 44100.00000 0 5902627.290 -19843723.205 14968105.068 10 0 59518 45000.00000 0 5983217.572 -17863812.800 17259232.214 10 0 59518 45900.00000 0 6250180.693 -15637875.128 19216770.801 10 0 59518 46800.00000 0 6727947.436 -13225600.830 20802986.182 10 0 59518 47700.00000 0 7429578.278 -10691897.050 21987296.168 10 0 59518 48600.00000 0 8356044.447 -8104380.772 22746846.289 10 0 59518 49500.00000 0 9496024.202 -5530774.275 23066941.065 10 0 59518 50400.00000 0 10826223.282 -3036308.356 22941324.082 10 0 59518 51300.00000 0 12312207.329 -681238.313 22372302.014 10 0 59518 52200.00000 0 13909713.443 1481426.795 21370710.096 10 0 59518 53100.00000 0 15566388.453 3407889.464 19955718.909 10 0 59518 54000.00000 0 17223884.090 5065143.684 18154484.849 10 0 59518 54900.00000 0 18820224.258 6432104.723 16001649.085 10 0 59518 55800.00000 0 20292347.877 7500241.928 13538692.552 10 0 59518 56700.00000 0 21578722.845 8273687.778 10813157.096 10 0 59518 57600.00000 0 22621922.768 8768817.797 7877745.592 10 0 59518 58500.00000 0 23371058.646 9013317.765 4789316.617 10 0 59518 59400.00000 0 23783962.751 9044776.241 1607791.697 10 0 59518 60300.00000 0 23829031.407 8908860.689 -1605004.545 10 0 59518 61200.00000 0 23486646.907 8657153.539 -4786548.912 10 0 59518 62100.00000 0 22750116.108 8344739.565 -7874844.972 10 0 59518 63000.00000 0 21626083.305 8027647.316 -10809644.387 10 0 59518 63900.00000 0 20134397.329 7760254.113 -13533638.826 10 0 59518 64800.00000 0 18307436.127 7592766.411 -15993597.532 10 0 59518 65700.00000 0 16188915.447 7568884.460 -18141426.431 10 0 59518 66600.00000 0 13832230.662 7723752.608 -19935126.200 10 0 59518 67500.00000 0 11298400.977 8082284.438 -21339628.969 10 0 59518 68400.00000 0 8653702.488 8657935.786 -22327495.961 10 0 59518 69300.00000 0 5967090.076 9451979.284 -22879461.441 10 0 59518 70200.00000 0 3307517.078 10453312.291 -22984811.820 10 0 59518 71100.00000 0 741265.858 11638807.020 -22641592.407 10 0 59518 72000.00000 0 -1670598.158 12974188.042 -21856637.998 10 0 59518 72900.00000 0 -3874542.170 14415399.720 -20645427.379 10 0 59518 73800.00000 0 -5826554.810 15910405.026 -19031765.454 10 0 59518 74700.00000 0 -7493725.650 17401338.711 -17047300.407 10 0 59518 75600.00000 0 -8855350.959 18826922.881 -14730886.618 10 0 59518 76500.00000 0 -9903521.654 20125042.010 -12127807.185 10 0 59518 77400.00000 0 -10643171.550 21235367.961 -9288872.731 10 0 59518 78300.00000 0 -11091587.132 22101923.886 -6269415.470 10 0 59518 79200.00000 0 -11277402.789 22675478.955 -3128199.438 10 0 59518 80100.00000 0 -11239127.007 22915673.454 73730.721 10 0 59518 81000.00000 0 -11023264.524 22792785.770 3274239.209 10 0 59518 81900.00000 0 -10682115.966 22289068.202 6411303.231 10 0 59518 82800.00000 0 -10271349.325 21399597.033 9424208.366 10 0 59518 83700.00000 0 -9847446.568 20132602.810 12254712.456 10 0 59518 84600.00000 0 -9465133.040 18509268.424 14848156.448 10 0 59518 85500.00000 0 -9174897.301 16563004.622 17154501.933 99